Location: Unspecified
(0.0000°N, 0.0000°E)
Time: 07:14:12
(UTC+00:00)

Courier 1B Rocket - Visible Passes

Search period start: 20 October 2021 00:00
Search period end: 30 October 2021 00:00
Orbit: 920 x 1202 km, 28.2° (Epoch: 19 October)

Date Brightness Start Highest point End Pass type
(mag) Time Alt. Az. Time Alt. Az. Time Alt. Az.
20 Oct 6.9 03:24:38 21° SSW 03:24:38 21° SSW 03:29:06 10° SSE visible
21 Oct 7.6 02:27:17 14° SSE 02:27:17 14° SSE 02:28:25 10° SSE visible
21 Oct 7.4 04:15:08 10° SSW 04:16:50 11° SSW 04:18:33 10° S visible
22 Oct 7.3 03:16:15 14° S 03:16:15 14° S 03:19:02 10° SSE visible
27 Oct 6.6 19:10:04 10° N 19:12:41 15° NNE 19:12:41 15° NNE visible
28 Oct 6.8 20:00:34 10° NW 20:02:13 18° NNW 20:02:13 18° NNW visible
29 Oct 6.0 19:00:13 10° NNW 19:05:08 24° NNE 19:05:27 24° NNE visible
